Wind_Speed
41 41 42 44 44 44 45 43 42 39 36 35 34 32 30 29 29 29 29 31 32 28 27 27 26 26 26 25 22 21 19 19 16 16 14 17 24 10 4 18 14 9 14 14 12 8 5 3 2 3 3 2 3 2 2 3 2 3 3 3 2 4 4 5 6 6 4 1 3 3 2 6 3 2 1 1 3 2 2 4 3 3 4 5 5 7 3 20
42 43 43 44 44 43 44 44 43 40 37 35 35 33 31 30 29 30 29 30 31 30 28 26 25 24 23 25 23 22 19 18 15 14 21 20 17 13 7 16 16 11 16 15 12 11 7 3 4 6 4 2 2 2 1 2 2 3 3 3 4 5 3 4 6 6 4 1 3 2 1 3 4 4 2 1 2 2 1 5 4 5 6 4 3 3 12 22
42 44 43 43 45 44 45 45 44 42 40 36 35 35 32 30 29 30 30 30 30 29 28 26 24 21 19 22 22 22 19 12 8 13 28 23 13 15 12 13 16 13 14 13 12 10 7 7 9 7 4 1 0 2 1 1 0 2 4 2 6 5 3 3 4 6 5 5 5 2 1 2 2 3 1 3 2 0 4 6 3 5 8 5 1 7 16 19
40 42 43 44 46 46 45 45 45 42 41 38 35 35 34 31 29 30 30 30 30 29 28 26 25 21 16 17 20 21 16 6 4 14 28 26 17 16 13 15 16 14 12 10 9 8 5 8 8 4 4 2 2 2 1 2 0 2 3 4 5 4 2 4 5 5 5 5 6 4 3 2 3 2 2 5 4 3 6 7 8 9 9 6 4 8 15 17
37 41 41 42 46 48 45 45 45 43 42 39 35 34 34 32 30 29 30 30 30 29 29 27 24 22 17 14 17 18 13 3 4 12 23 25 22 18 14 14 16 15 11 9 10 9 6 7 6 4 4 2 1 2 2 2 2 2 2 4 4 4 2 3 4 4 4 3 4 6 5 3 2 1 3 8 6 5 7 7 9 10 8 7 7 11 13 14
36 40 41 41 46 49 46 45 45 44 42 40 37 34 33 32 31 29 30 30 30 29 28 28 26 24 20 14 14 12 8 3 1 3 14 21 23 20 16 14 15 14 9 9 11 9 7 5 4 3 2 2 3 3 3 2 2 2 3 2 3 3 2 2 2 3 4 4 4 5 3 2 3 2 3 7 8 8 6 4 5 8 7 7 8 12 12 12
38 40 43 42 44 45 46 46 45 44 42 40 38 36 33 32 31 30 30 31 30 30 29 28 27 25 21 15 12 5 1 4 1 4 6 15 24 22 19 17 15 13 9 11 13 9 5 5 2 4 5 3 4 4 3 1 3 2 3 3 2 3 4 2 2 3 4 5 5 3 2 3 5 3 2 5 10 10 6 2 3 6 7 8 8 11 12 14
38 40 43 43 42 42 44 46 45 44 42 40 38 37 34 31 31 31 30 30 28 30 29 29 29 25 23 19 10 2 1 5 5 2 4 7 19 24 22 19 15 14 12 14 16 12 7 8 4 1 3 3 4 5 4 2 2 3 5 2 0 2 3 3 2 3 2 3 1 3 2 4 6 3 2 6 11 9 5 1 1 3 6 7 8 9 11 12
38 40 43 43 42 42 43 45 45 44 42 40 39 37 35 32 31 30 29 29 28 29 29 31 31 27 26 18 7 2 9 14 9 3 2 3 12 23 24 19 17 16 15 14 16 16 9 9 9 4 3 4 4 5 4 4 2 5 6 3 1 2 3 1 1 1 1 1 1 2 3 5 2 1 2 8 10 6 2 3 3 5 6 7 7 8 10 10
39 40 42 42 42 43 44 45 44 44 42 40 40 38 37 33 31 29 28 28 28 28 28 30 30 28 27 16 7 8 12 20 22 10 0 1 9 21 21 18 19 18 16 13 14 15 9 7 10 6 2 2 4 2 2 6 3 3 6 3 2 2 3 2 1 2 2 1 3 3 6 5 2 1 3 7 7 2 3 1 1 5 6 8 7 8 11 11
39 40 42 43 43 43 45 47 45 44 42 40 39 38 37 34 32 29 28 28 27 27 27 29 30 30 27 15 10 10 4 13 26 22 7 1 7 19 19 17 18 18 17 12 12 15 10 9 13 8 1 2 4 2 1 5 3 3 5 2 2 3 4 1 1 3 1 1 4 5 4 5 2 2 5 6 3 2 4 3 2 5 6 8 8 8 9 12
39 40 43 43 43 43 43 46 46 45 43 40 39 38 36 34 33 30 28 28 26 27 28 30 32 31 24 12 10 8 3 8 16 22 16 4 8 18 18 16 16 17 18 13 10 13 9 11 17 8 2 4 5 2 3 3 3 3 4 1 4 5 4 4 2 2 2 2 4 4 3 6 6 6 7 7 4 3 3 5 4 6 7 6 7 7 7 12
40 42 44 43 44 43 42 45 47 45 43 41 39 37 36 34 32 30 28 27 26 28 29 30 32 31 21 8 8 7 4 10 16 19 18 11 13 15 15 16 13 10 14 13 10 9 8 13 17 8 2 5 4 2 2 2 2 2 2 1 2 3 4 6 3 2 3 3 4 3 3 7 10 8 6 7 6 3 4 6 6 6 6 6 6 6 7 11
40 43 45 45 45 45 43 45 46 46 43 41 39 37 36 34 32 31 28 25 24 25 26 29 28 21 12 4 6 9 7 11 16 20 20 17 16 13 12 14 11 9 7 11 11 7 8 12 11 6 2 3 3 1 3 4 1 1 1 1 2 2 4 4 2 5 5 3 3 4 3 9 10 7 7 7 6 6 7 8 8 7 7 6 6 6 7 9
41 43 45 45 47 46 45 46 46 46 44 42 40 36 34 33 32 30 27 23 21 21 22 26 24 13 3 2 4 11 11 10 15 20 21 20 19 14 10 13 10 8 8 8 11 10 10 11 7 5 1 0 3 4 3 3 2 1 2 1 2 4 3 5 1 7 7 2 2 5 3 9 10 7 7 6 5 6 8 8 7 7 7 7 6 7 7 8
41 45 46 46 49 47 47 48 47 47 45 43 40 35 33 32 31 29 25 22 18 21 22 19 18 11 3 3 4 12 11 9 15 19 19 21 20 18 17 17 13 11 9 6 9 11 10 8 3 2 2 2 3 4 3 0 1 1 3 3 2 4 2 3 2 5 7 2 2 6 5 7 7 4 4 1 4 5 6 8 8 8 8 7 7 6 7 8
41 46 46 46 50 50 49 49 49 49 46 44 40 35 33 30 29 27 22 20 18 20 20 15 13 6 1 2 3 8 8 8 16 20 18 18 21 27 23 14 12 13 11 5 5 5 4 3 0 1 3 2 3 4 2 4 6 2 1 2 2 3 3 2 3 4 5 4 5 7 7 12 9 4 4 2 4 5 5 8 8 8 8 7 7 6 7 8
42 45 46 46 49 50 50 50 49 50 48 46 43 37 34 30 28 26 22 21 17 14 11 10 12 4 3 5 3 5 10 13 20 22 18 18 24 29 23 14 12 12 9 4 3 3 3 3 1 1 2 3 4 6 7 5 5 4 2 2 1 2 4 5 4 3 5 4 6 5 6 15 14 8 8 6 2 3 6 8 7 8 7 6 7 7 8 9
42 46 48 46 48 50 51 52 49 49 49 46 44 40 34 28 24 21 20 21 14 7 4 6 10 4 1 7 6 4 11 18 21 18 16 20 23 20 16 18 15 9 5 2 1 2 1 2 2 3 6 8 8 10 9 2 3 7 5 4 4 3 4 5 5 4 5 5 6 8 7 13 17 11 9 9 4 5 9 9 9 8 7 7 7 8 9 10
43 47 50 48 49 51 53 53 48 50 51 46 45 37 23 16 11 7 7 9 6 1 3 8 10 3 4 2 9 9 11 16 14 11 17 22 23 16 8 9 9 5 5 4 2 2 0 3 5 7 9 10 10 10 7 2 3 7 7 5 6 6 4 4 4 4 2 3 5 8 8 12 17 12 8 7 4 5 10 12 13 11 9 9 10 12 13 12
44 49 52 50 51 51 54 54 49 51 52 49 44 23 10 12 8 8 6 2 3 4 4 9 8 4 2 1 12 15 8 8 7 7 18 21 21 15 3 4 8 5 6 7 5 2 1 4 8 8 7 7 8 7 5 0 2 5 5 5 5 6 5 5 5 3 2 2 4 5 6 11 16 14 9 6 4 7 12 14 14 14 11 9 11 15 14 11
44 50 54 53 52 51 53 54 51 54 51 48 36 11 10 18 13 20 17 4 5 4 6 8 6 3 1 4 13 17 7 5 7 8 16 17 13 10 3 5 10 8 7 8 5 1 2 5 8 6 4 4 5 6 5 3 1 2 3 4 4 3 2 4 4 2 1 3 3 4 5 9 13 14 10 7 7 9 13 15 14 13 12 11 12 13 12 11
44 51 53 51 53 52 53 54 53 52 46 41 27 12 21 24 17 25 17 4 5 3 5 5 5 1 3 4 8 11 8 6 7 9 17 16 9 8 7 8 10 9 9 10 8 6 4 5 6 5 6 6 5 6 7 3 2 3 2 3 3 2 2 4 4 2 2 2 1 2 5 7 9 13 12 10 10 11 14 15 12 10 12 15 14 12 12 12
45 51 51 51 54 52 54 55 49 43 40 40 28 22 33 27 24 28 12 4 4 2 1 3 3 3 3 4 5 6 6 4 4 9 17 16 7 6 9 8 10 9 9 14 14 11 10 6 2 4 7 8 6 6 8 6 4 4 4 5 4 3 6 5 2 2 2 2 1 2 7 8 7 11 13 9 8 10 12 12 11 11 13 14 13 12 13 12
48 53 52 52 51 52 56 49 37 34 35 33 23 27 37 26 25 29 11 4 4 1 1 1 1 5 5 4 5 5 4 2 1 8 15 15 9 6 6 5 6 9 11 15 13 10 13 10 1 1 4 8 8 6 7 7 5 6 6 8 6 5 7 6 1 2 3 4 2 1 4 7 4 8 12 6 4 8 8 8 11 12 12 11 12 14 13 11
51 53 53 55 51 52 47 28 26 34 25 17 21 34 38 27 28 27 9 5 3 1 3 4 3 9 10 4 4 5 3 1 1 8 15 14 7 4 5 5 1 6 10 9 7 4 7 10 7 3 4 8 9 6 7 8 6 6 5 7 6 6 6 5 3 1 1 4 3 1 3 7 4 5 8 6 6 8 8 8 10 11 11 10 11 12 10 10
53 52 55 56 53 52 34 16 29 33 15 13 31 42 37 32 32 22 6 4 2 2 6 4 1 8 11 7 7 7 4 3 2 7 14 12 7 2 3 7 3 3 6 5 4 3 5 11 11 9 6 6 7 7 9 11 7 4 4 8 8 6 6 4 3 2 2 3 3 1 2 5 8 6 7 8 10 11 10 11 12 12 13 11 11 12 11 12
56 55 56 54 55 51 31 25 33 23 15 26 40 43 38 37 30 12 5 3 4 3 6 3 2 7 7 5 8 5 2 4 5 7 11 10 7 3 3 10 9 8 10 9 6 2 8 13 15 16 10 6 7 6 7 11 7 3 4 7 7 6 5 4 4 2 1 2 3 3 1 3 9 6 4 6 11 12 11 13 14 14 14 13 11 13 12 12
60 57 57 55 54 44 29 32 30 16 24 38 40 42 41 35 20 5 3 5 2 1 4 5 5 6 4 4 6 3 2 3 2 5 8 5 3 3 2 8 8 9 11 11 7 2 4 11 15 16 12 10 12 6 8 12 6 3 4 5 4 4 4 4 4 3 2 0 7 7 5 4 10 6 3 3 7 10 9 10 12 13 14 13 11 12 12 10
62 58 58 56 46 34 28 29 26 23 33 41 42 44 38 22 10 5 7 6 2 1 2 5 6 7 9 8 6 4 3 2 1 4 5 2 1 2 1 1 4 6 7 9 7 1 1 3 8 10 10 11 9 5 7 10 6 3 4 6 5 4 4 3 2 3 2 4 11 12 10 7 9 4 4 4 4 7 8 7 9 12 14 13 11 11 11 8
63 58 60 56 43 37 29 20 26 36 40 43 44 37 23 8 2 7 9 2 3 3 4 6 6 8 13 12 8 5 3 2 1 4 4 3 3 3 2 3 3 3 4 6 6 3 0 4 5 5 4 5 6 5 2 5 7 5 4 4 2 1 1 2 2 2 3 6 10 10 10 10 9 5 3 4 5 4 6 7 9 12 13 12 10 10 9 7
63 59 60 53 44 41 28 21 37 47 43 43 37 20 10 5 3 6 5 2 2 4 6 7 8 9 13 13 10 8 5 1 2 5 7 7 5 5 7 6 5 4 3 5 7 5 3 3 3 1 0 6 8 5 2 3 6 4 4 5 3 2 2 3 3 3 4 7 8 4 7 8 10 12 10 9 8 7 8 9 10 12 13 12 10 8 7 6
62 59 55 47 41 37 29 34 47 48 43 39 23 7 6 8 8 6 4 2 2 4 7 8 10 12 15 14 10 10 7 3 4 6 7 9 6 6 9 7 8 5 2 6 8 4 3 3 3 1 1 6 9 8 5 4 8 8 7 7 6 4 3 4 4 2 3 8 8 3 6 2 7 11 13 14 13 13 12 10 11 12 13 13 10 8 8 8
61 58 49 39 35 34 36 44 48 48 42 28 12 7 9 8 8 8 5 3 1 4 8 10 12 13 13 12 8 9 7 3 6 7 6 9 7 6 7 7 10 4 2 6 5 5 7 5 6 9 5 8 12 12 7 5 7 10 7 6 6 5 4 4 3 3 5 6 5 2 5 4 5 4 6 9 9 10 10 7 9 11 11 11 11 9 10 11
59 53 44 34 31 37 44 46 49 49 34 16 8 8 10 8 8 8 6 4 2 4 7 11 13 11 9 6 5 8 5 1 7 6 4 7 6 6 6 7 12 7 2 5 4 5 8 5 6 11 7 11 16 11 6 6 5 6 4 5 7 6 4 1 1 2 4 3 3 2 3 5 5 6 8 8 7 7 8 7 8 12 13 11 10 11 11 10
51 43 36 29 32 43 48 46 49 46 24 10 9 8 8 7 7 8 7 5 6 8 12 11 10 9 8 4 4 8 3 3 8 7 4 5 5 6 7 5 9 9 5 5 2 3 7 4 6 8 5 12 18 11 8 8 5 4 5 7 7 4 6 2 2 1 1 2 4 3 4 5 5 11 13 11 11 10 9 10 10 12 15 12 10 12 11 9
37 32 26 23 34 47 50 48 50 40 17 8 9 8 6 5 4 7 6 4 6 11 13 10 7 7 8 5 6 11 6 3 8 8 4 5 4 6 8 4 7 11 9 6 2 1 5 4 3 8 8 11 11 7 5 6 4 4 6 7 3 4 3 2 2 1 0 4 3 3 9 8 4 8 7 5 12 13 11 13 14 13 13 11 10 11 10 9
29 26 18 21 38 47 49 52 45 27 11 7 9 6 4 2 2 4 6 6 8 10 10 6 5 6 8 8 8 12 11 6 9 8 6 6 4 8 12 6 6 13 13 8 2 1 3 2 3 7 11 6 6 6 3 6 2 2 3 5 5 1 2 3 3 3 2 4 3 4 9 8 7 10 8 5 9 10 12 14 15 14 13 12 12 12 10 10
25 16 6 21 41 42 46 49 33 14 7 9 10 6 4 2 2 3 7 8 7 8 8 4 3 4 7 9 9 11 12 10 10 9 7 7 5 8 15 9 5 12 14 10 6 1 2 3 4 4 6 5 5 6 7 7 5 2 2 2 3 3 4 4 5 3 3 5 4 5 6 5 7 12 13 12 9 8 11 12 13 16 16 14 13 11 9 9
15 5 3 25 40 35 37 32 17 9 8 10 8 4 4 4 1 1 6 8 5 3 4 4 4 6 7 7 6 8 10 9 10 8 6 8 6 6 11 11 6 8 11 10 8 3 1 2 3 1 2 5 4 6 12 13 10 6 4 4 4 3 1 1 3 2 2 4 4 5 7 7 6 5 8 12 10 11 13 12 13 15 15 14 12 9 8 8
8 3 5 26 36 33 28 15 7 8 7 7 5 1 4 5 3 2 3 6 5 1 2 5 6 6 6 7 6 6 7 6 7 7 5 7 8 5 8 13 12 10 10 8 9 7 3 3 4 2 2 5 5 7 9 8 9 10 9 8 10 8 4 2 4 2 2 3 4 3 8 11 7 4 7 11 10 11 14 14 13 13 14 14 11 8 8 8
4 3 10 29 37 34 22 7 4 7 4 6 5 3 4 4 4 3 2 5 5 2 3 4 5 5 5 5 5 6 7 5 6 7 5 8 10 7 7 13 13 10 9 8 9 8 3 1 3 3 2 5 5 3 2 4 0 7 9 8 8 8 7 7 8 5 3 5 5 2 5 13 9 6 8 9 9 11 13 13 13 12 12 14 11 7 7 8
2 4 16 35 41 31 14 5 6 5 2 4 5 4 3 3 3 3 2 2 2 2 2 2 3 4 4 4 5 7 8 6 7 8 6 6 10 7 5 9 10 9 7 6 6 5 2 2 3 4 3 4 5 6 5 5 4 4 7 6 6 8 10 9 6 3 4 5 5 3 5 13 11 6 8 8 8 9 10 10 12 12 10 11 12 9 7 8
2 4 9 26 38 26 10 6 10 8 4 6 6 3 2 2 4 5 5 5 3 3 4 3 2 2 2 4 5 8 10 6 5 8 5 4 7 4 6 9 10 9 7 7 7 6 4 4 5 6 5 4 4 4 6 3 2 3 7 10 11 12 13 7 1 2 4 7 9 7 7 12 10 2 4 7 9 9 9 8 9 9 9 10 11 10 8 7
5 3 4 10 20 15 3 2 9 10 8 9 9 6 3 2 1 2 6 5 2 4 5 2 1 3 3 3 4 5 8 5 3 6 5 3 4 2 6 11 11 9 9 9 9 7 5 5 7 9 9 8 8 8 8 7 6 3 5 11 15 15 15 11 6 7 9 9 11 9 8 13 14 8 7 8 7 8 8 8 8 7 8 10 10 11 10 7
4 2 3 3 4 4 0 2 5 8 8 11 9 6 7 4 2 2 4 4 1 4 4 2 3 5 3 4 6 4 8 6 3 4 6 7 5 1 5 11 10 10 11 9 8 6 3 4 8 10 13 12 12 11 7 4 5 4 5 11 15 16 17 14 9 9 10 9 10 11 11 15 21 22 19 11 5 7 9 8 9 9 9 11 11 11 10 7
2 2 3 3 2 3 0 3 3 6 7 10 8 6 9 7 2 2 1 1 3 5 4 3 3 5 5 8 8 6 10 9 4 5 7 10 7 1 1 6 9 12 12 7 7 5 3 5 10 12 16 16 16 15 6 3 7 10 10 15 16 15 17 16 13 13 11 9 11 13 13 16 23 27 25 14 7 8 9 9 10 10 9 10 10 9 9 8
2 2 1 1 2 5 5 4 7 9 10 11 6 7 11 7 4 4 2 1 3 5 4 1 3 9 12 13 10 6 8 8 6 7 7 8 7 3 1 3 7 11 11 6 5 5 4 7 10 13 16 18 20 16 6 2 6 9 12 17 17 16 18 18 19 19 15 12 13 14 14 17 22 26 26 16 8 8 9 11 11 9 8 8 8 9 10 9
3 3 1 3 2 6 9 9 9 8 11 11 5 7 14 13 11 9 3 4 2 4 6 7 8 11 12 12 10 8 9 9 9 11 10 8 8 6 3 3 4 7 9 7 4 3 3 7 11 12 15 18 21 18 10 7 7 7 10 14 15 17 19 20 20 21 21 19 16 14 17 18 18 24 25 12 5 8 9 9 9 7 7 8 8 10 11 10
3 2 2 2 3 4 7 6 7 6 7 8 5 5 10 14 15 9 4 6 9 6 7 13 14 10 9 10 10 10 12 13 14 13 11 10 8 5 5 4 2 3 5 7 5 2 4 8 10 10 11 15 18 17 14 14 14 13 12 10 10 12 15 17 19 18 19 20 19 19 21 18 16 22 20 4 5 7 9 8 8 7 7 8 9 10 11 13
3 2 4 4 3 3 6 6 7 7 6 8 8 6 9 13 15 11 3 4 9 9 11 18 13 7 6 7 10 14 14 12 11 7 5 8 9 5 5 4 5 6 6 7 5 5 5 6 6 6 8 12 15 17 17 16 16 17 17 13 10 10 11 13 15 16 18 19 20 21 19 16 17 18 13 6 6 11 10 10 8 7 7 8 10 12 13 16
3 3 3 4 3 1 5 6 7 7 6 8 10 9 10 11 12 11 5 2 3 6 9 12 9 7 5 10 16 19 12 8 5 4 4 1 2 2 4 4 4 6 8 9 6 5 7 6 6 6 6 9 15 17 14 12 12 13 15 16 17 17 16 15 15 16 18 17 15 15 15 16 18 13 11 16 19 15 9 8 7 8 9 10 12 14 14 15
Wind_Direction
229 225 223 220 217 211 208 209 208 206 208 208 207 209 211 210 207 207 208 206 207 207 205 203 193 188 185 179 189 197 186 185 186 183 195 215 208 201 176 188 200 212 191 185 184 176 155 144 167 121 81 55 10 333 359 1 58 63 91 121 200 195 201 183 179 190 166 245 243 253 204 143 165 220 178 67 58 67 330 309 299 298 260 229 265 307 176 166
232 225 223 221 218 213 207 207 207 204 205 207 206 206 208 209 207 206 206 205 205 207 209 207 197 189 187 181 184 187 178 182 184 195 214 217 207 199 177 181 191 198 187 185 189 175 148 143 142 107 74 78 1 355 13 343 68 98 115 149 220 203 214 199 174 183 167 155 203 239 234 163 177 174 144 202 278 34 199 277 326 324 278 265 298 223 166 163
236 226 222 221 219 214 207 205 207 204 202 204 205 203 204 207 207 206 205 203 203 204 205 208 205 194 184 183 185 182 171 168 178 220 225 218 207 202 198 194 191 187 184 188 192 180 171 170 150 116 70 110 315 14 52 340 15 147 131 182 234 207 239 249 187 190 186 151 157 203 198 185 213 172 160 184 195 213 208 236 252 269 257 250 260 167 165 165
237 226 222 221 219 216 208 204 205 205 202 201 203 202 201 202 204 205 203 202 204 204 203 204 207 202 188 185 186 173 154 145 206 226 226 217 210 203 199 205 197 185 181 181 178 171 170 154 138 106 91 135 325 30 152 283 236 159 149 193 226 186 217 241 202 196 191 159 154 155 128 170 230 181 159 147 146 263 243 230 213 225 230 205 193 177 172 171
238 228 224 220 220 218 209 203 203 203 202 199 199 200 198 198 200 202 201 200 202 203 203 202 204 203 194 189 181 160 141 160 225 217 224 217 211 205 195 200 198 191 181 173 164 140 133 137 111 66 87 139 18 60 229 269 112 161 216 204 198 157 193 244 198 168 151 131 127 134 146 171 164 159 157 151 171 236 231 223 217 225 218 184 177 178 178 180
237 230 225 222 222 219 208 201 202 203 201 198 197 198 197 195 195 199 200 199 199 200 200 200 200 196 190 184 175 162 158 209 56 171 211 210 209 207 198 195 192 194 184 171 163 133 115 116 110 124 105 145 165 169 226 271 89 189 264 258 226 178 187 260 171 162 135 124 151 164 177 125 110 234 185 165 206 227 218 209 221 238 220 187 168 169 179 189
236 230 224 222 222 219 208 200 200 201 200 197 196 197 197 194 193 197 198 197 198 198 196 196 194 189 184 174 166 166 227 256 313 83 148 193 205 204 201 200 192 191 178 156 149 136 128 121 147 160 130 152 183 193 208 51 58 170 252 279 256 191 200 249 132 148 151 162 200 178 110 129 164 206 154 189 235 241 247 255 237 238 195 173 167 174 189 194
233 229 223 220 218 217 210 200 198 199 199 197 194 194 196 194 192 194 196 196 196 196 197 196 194 189 183 171 155 140 291 248 234 138 95 163 194 198 199 199 196 191 176 163 155 152 140 137 181 183 137 205 187 178 176 101 58 201 230 251 199 210 236 275 114 124 158 196 200 110 138 225 199 175 144 226 248 250 256 313 140 158 150 172 188 192 197 198
231 228 223 220 216 214 210 201 196 196 197 195 193 192 193 193 191 193 194 193 194 194 195 196 195 192 186 172 138 205 226 221 208 156 78 105 177 192 197 194 195 191 176 175 168 163 152 152 184 192 179 209 168 173 174 159 231 211 197 196 181 281 302 331 169 133 19 268 101 116 254 276 244 216 250 243 248 241 188 78 105 133 150 195 203 204 204 203
230 228 222 217 213 212 208 200 195 194 195 194 192 190 191 191 189 191 190 191 195 191 189 195 194 188 184 168 151 212 226 221 220 221 316 43 177 185 191 189 189 186 175 176 172 169 172 169 167 154 151 173 157 157 156 174 204 181 162 163 181 289 326 52 198 263 354 284 178 175 253 284 330 281 254 256 258 222 151 92 127 158 183 209 210 216 213 214
228 226 220 215 212 209 203 198 195 192 193 192 190 188 189 188 187 188 187 189 192 185 181 188 188 182 177 166 183 207 202 212 223 226 219 37 180 182 184 183 181 183 175 170 180 182 185 168 143 120 127 183 155 114 244 199 144 127 139 146 278 321 320 319 224 262 303 238 174 154 263 286 319 247 220 253 277 132 184 223 214 200 214 217 215 220 215 224
227 224 219 213 210 207 201 196 194 190 190 190 189 187 186 186 185 185 186 186 186 183 180 182 185 179 169 171 201 199 155 173 198 209 205 164 161 175 176 171 172 183 180 169 181 191 191 167 146 136 218 166 142 137 229 206 111 132 133 177 291 351 317 249 219 251 179 195 172 137 301 274 244 232 212 233 243 133 195 233 230 228 234 230 223 227 221 230
226 223 217 211 208 207 201 195 191 188 187 187 186 185 185 184 183 184 184 184 184 184 182 180 181 175 165 179 201 182 162 160 168 184 182 156 151 163 166 157 143 157 181 174 165 181 194 175 155 146 159 130 144 183 124 79 94 168 124 155 272 1 300 239 179 126 160 192 176 157 278 256 242 245 224 231 235 202 241 247 241 241 245 245 233 230 231 232
224 221 215 208 205 203 198 193 190 186 184 184 183 183 183 182 180 181 182 182 182 184 185 184 177 166 164 174 175 181 172 156 168 172 163 153 141 139 161 161 132 100 139 162 145 140 177 172 145 115 88 116 149 131 58 30 33 144 123 147 191 214 272 269 184 146 168 216 155 152 250 261 258 261 243 238 221 209 236 246 243 245 247 251 244 236 241 235
222 219 212 205 202 199 196 192 188 183 181 180 179 178 178 178 177 176 179 177 176 179 179 183 175 148 150 251 163 174 169 156 169 171 171 167 144 127 149 154 132 94 98 131 130 124 147 152 126 107 147 59 113 101 58 8 11 122 198 193 170 204 265 312 256 170 189 239 132 157 229 269 269 262 251 243 207 211 238 250 255 258 257 256 255 246 247 246
219 215 210 204 200 197 193 191 187 181 179 177 174 171 171 172 172 170 173 171 171 177 168 168 170 150 149 236 175 165 159 157 173 174 177 180 162 142 135 129 114 103 102 105 117 125 133 130 114 131 132 102 114 106 79 340 276 246 210 193 176 192 227 309 287 216 210 185 193 207 224 267 268 245 272 288 172 193 236 258 264 260 258 252 251 250 250 256
218 213 207 200 198 194 189 189 186 179 176 171 165 164 166 164 163 162 162 164 169 170 157 146 150 149 208 169 143 164 153 150 169 170 171 178 167 146 131 113 97 103 107 93 85 94 90 70 36 162 103 108 134 127 155 221 223 228 198 190 188 161 168 227 280 259 213 187 225 219 225 251 247 226 290 344 145 172 225 251 257 252 253 249 246 251 251 253
216 212 204 195 193 191 188 187 182 176 171 165 159 160 159 153 154 152 144 149 151 142 134 134 141 146 256 192 177 172 160 154 159 164 166 168 160 147 135 124 112 101 94 79 44 25 16 27 50 144 120 161 160 172 200 217 198 180 155 163 158 146 184 208 242 226 179 189 232 217 233 254 256 254 271 281 183 204 249 249 251 252 255 257 252 250 248 249
215 213 203 194 190 187 186 183 179 173 166 159 154 149 143 139 142 140 137 143 143 133 138 151 159 170 256 186 187 160 160 158 154 154 151 155 155 146 134 130 122 105 98 98 38 36 65 67 105 170 190 195 191 196 200 171 142 163 156 169 179 193 217 222 248 249 180 181 226 220 227 253 258 255 253 263 251 253 269 265 261 257 256 262 261 258 253 250
214 211 201 192 188 185 184 180 174 169 163 154 146 139 134 136 131 124 137 156 164 122 143 164 173 160 32 146 162 141 150 153 145 141 145 149 146 130 122 128 110 105 138 141 116 47 110 187 195 201 201 198 196 200 198 89 113 148 153 185 194 202 237 239 251 289 190 191 240 229 226 251 260 260 254 259 249 251 264 262 261 258 253 255 258 261 257 253
211 206 197 190 186 185 182 176 170 167 162 154 147 139 144 153 148 160 151 162 189 41 70 160 155 108 38 107 145 137 135 139 125 138 149 147 138 130 152 154 132 162 172 140 122 59 341 220 217 213 204 198 193 189 198 223 120 140 155 187 205 210 236 245 238 307 44 195 265 254 238 253 262 265 260 244 216 233 248 251 257 258 255 252 252 258 260 259
209 203 192 186 185 182 178 174 169 165 159 155 152 138 156 161 156 160 150 139 185 64 51 144 127 66 87 116 143 146 136 135 136 147 156 154 153 159 190 165 159 177 159 128 133 178 283 268 246 216 172 171 172 160 180 217 178 168 151 168 217 216 251 282 257 273 112 188 259 276 256 256 263 268 263 239 221 231 241 243 248 254 258 254 249 254 259 259
206 199 187 183 181 177 175 174 168 161 156 157 157 145 162 164 148 147 139 102 160 88 41 138 148 106 100 124 164 160 148 154 154 163 168 166 171 170 164 172 171 160 148 153 172 191 218 270 256 198 153 138 141 149 170 195 211 210 170 175 224 160 153 269 274 266 228 200 241 305 293 271 266 277 268 235 223 233 243 246 248 247 250 253 250 252 253 251
200 191 185 181 177 174 172 169 164 162 161 162 162 159 163 159 146 146 126 52 149 114 46 162 161 156 139 152 168 161 151 145 143 163 171 170 159 154 164 172 161 153 169 177 180 191 204 222 245 184 162 140 147 166 177 197 221 220 205 205 215 162 188 226 259 314 322 320 354 7 305 277 238 258 265 238 216 237 245 248 254 247 243 253 258 254 250 248
193 185 183 177 175 173 167 161 162 167 164 161 157 157 159 152 150 151 116 48 159 21 282 189 155 179 173 136 137 152 143 91 113 163 171 173 155 142 166 166 160 173 181 177 177 200 213 207 159 140 161 149 163 182 184 189 210 229 220 207 199 182 205 220 181 21 352 318 321 83 282 282 224 235 261 264 234 249 250 244 251 253 248 250 256 254 251 250
186 181 179 176 174 168 161 157 165 165 159 160 153 154 158 152 155 157 110 44 178 241 187 166 161 178 172 152 138 131 127 278 257 159 167 172 156 130 163 163 183 185 170 163 174 210 215 194 177 173 179 172 178 195 190 176 196 237 206 174 178 183 200 203 160 116 284 270 299 89 219 273 283 241 252 269 267 261 260 251 249 255 255 243 246 253 249 247
180 177 174 172 170 163 156 156 163 160 160 168 156 154 157 153 156 162 108 39 251 177 159 160 167 171 168 173 159 141 167 194 117 160 173 170 158 82 155 164 163 169 144 131 198 212 164 176 190 193 196 195 191 203 191 170 185 239 149 149 171 181 187 177 141 172 259 292 314 26 156 270 279 249 222 237 257 260 260 261 258 255 255 246 242 249 245 242
177 176 171 169 169 167 161 155 158 162 171 163 154 153 153 152 155 157 112 145 226 168 151 165 152 150 150 161 159 152 195 145 129 180 176 160 153 96 159 184 175 161 154 162 199 194 143 170 194 194 195 215 216 213 172 161 185 236 150 153 173 170 164 141 118 155 348 10 288 256 151 264 273 262 217 230 249 254 250 251 255 257 258 254 246 246 245 241
172 170 170 168 167 169 164 158 161 160 157 154 149 150 149 149 149 114 119 180 215 156 163 158 145 141 127 131 158 145 47 112 139 161 149 148 155 99 168 196 170 152 167 185 193 140 162 186 188 186 192 213 216 197 152 165 193 225 136 102 94 106 103 116 130 135 109 240 249 233 174 230 270 263 192 218 247 250 249 246 252 258 259 259 255 255 252 243
168 164 167 165 162 163 160 159 162 150 150 152 148 147 143 141 140 134 184 198 113 101 185 164 166 166 152 146 167 163 91 85 92 117 129 148 150 83 51 105 108 134 174 209 214 207 325 164 166 185 201 206 198 148 152 173 166 136 106 72 56 59 57 72 110 111 134 246 250 229 183 198 269 266 170 197 225 221 230 245 254 257 259 261 260 259 258 249
165 161 164 164 162 163 158 156 158 151 150 150 145 140 129 112 137 163 183 188 89 143 160 152 164 163 159 158 165 162 110 58 154 145 139 150 159 155 140 106 88 118 172 207 222 242 298 120 152 208 208 159 123 92 105 143 131 116 97 98 96 34 55 62 70 127 191 240 252 230 182 186 241 263 193 237 267 234 223 234 245 253 261 262 256 258 260 256
163 161 165 165 163 167 163 155 155 153 152 148 141 134 120 123 177 185 188 98 103 185 163 149 156 157 162 165 170 168 150 125 196 170 164 171 179 178 179 175 159 162 187 191 202 216 210 178 168 7 155 153 135 120 76 105 141 148 126 143 177 208 209 193 189 186 204 243 256 208 161 188 237 256 252 256 270 260 238 231 238 250 260 263 260 265 270 263
161 163 166 165 163 167 160 151 152 152 151 146 136 123 140 157 175 185 182 144 164 182 158 157 160 157 161 167 176 171 159 170 181 175 180 178 184 194 195 192 178 178 176 178 190 185 184 228 201 128 220 181 162 164 179 175 177 182 173 178 189 191 214 214 202 185 199 246 261 169 138 210 262 260 255 250 249 246 242 235 237 248 261 269 271 271 272 268
159 163 164 162 162 162 152 149 153 154 150 142 128 140 158 169 172 168 179 206 203 137 144 157 153 153 165 170 172 165 160 188 171 164 182 181 188 203 196 193 193 195 103 165 186 170 191 228 193 186 186 170 186 195 183 146 168 192 186 174 193 200 211 216 208 209 211 242 270 144 136 210 232 248 251 242 248 257 261 261 258 263 265 267 271 269 264 264
158 160 158 153 151 152 150 151 155 156 151 139 133 158 169 170 164 168 185 198 193 124 129 149 146 148 170 170 159 171 173 171 161 161 185 187 196 202 192 191 189 184 140 172 186 176 203 243 191 190 170 162 193 203 149 118 159 196 150 149 211 207 170 218 281 221 213 250 267 198 195 228 241 287 279 254 271 285 280 276 271 271 267 258 264 266 259 258
154 153 153 147 144 150 154 155 156 157 155 143 151 173 183 176 170 174 175 163 166 149 134 143 150 153 171 160 154 183 187 84 151 170 198 196 214 210 203 201 179 179 183 180 176 166 197 236 192 181 170 182 196 191 165 172 171 166 167 182 211 175 132 165 279 333 77 256 241 204 246 276 294 287 271 248 248 257 265 267 252 252 261 258 255 259 257 256
145 144 148 146 149 154 157 157 157 158 158 155 169 180 177 186 182 160 154 134 142 142 136 148 163 158 161 153 164 180 176 115 156 175 186 183 209 203 200 223 183 187 202 191 192 186 185 232 207 172 193 207 192 159 189 212 141 125 196 188 119 60 92 143 233 319 63 240 253 231 241 253 258 273 288 252 234 233 235 250 250 248 258 262 255 255 256 256
136 140 144 152 157 158 158 158 157 156 155 165 181 183 156 181 200 142 132 118 120 134 145 153 156 160 162 161 173 177 172 165 167 175 180 176 206 194 184 205 197 195 208 198 194 271 169 238 270 193 195 194 121 123 233 261 177 121 219 167 116 143 196 160 196 223 218 234 269 248 238 240 228 243 267 257 228 224 230 243 255 260 259 260 258 254 252 255
135 140 131 155 159 159 159 159 156 150 155 171 185 194 154 148 240 165 135 122 113 135 154 136 107 155 172 170 172 171 175 180 169 171 185 177 204 198 181 187 200 197 203 193 190 246 130 192 269 237 190 155 119 156 202 222 206 213 271 166 137 215 196 172 201 204 204 233 254 257 245 237 231 235 246 247 223 207 227 239 249 254 252 252 254 253 250 251
136 134 102 156 159 157 155 154 149 150 168 176 183 193 161 152 246 142 122 114 105 128 159 142 125 149 169 171 167 167 181 186 170 174 192 176 188 212 184 179 182 188 194 192 195 205 104 199 245 313 144 155 176 201 200 203 195 190 216 185 170 209 150 172 229 152 160 228 240 262 260 253 244 220 224 236 219 201 217 227 237 247 252 255 256 256 255 252
128 97 130 157 156 147 141 137 141 160 169 172 166 142 160 154 106 72 54 78 101 109 134 136 136 140 152 160 163 168 176 181 175 179 193 185 193 218 193 182 179 175 174 184 199 197 183 203 205 195 158 183 214 215 209 214 198 190 203 196 191 192 165 209 230 158 138 217 197 220 260 265 257 185 198 221 213 207 217 224 236 246 252 259 260 251 251 252
106 88 138 153 151 143 135 123 148 158 170 170 152 110 142 138 104 116 33 52 84 73 66 103 125 133 140 148 154 157 159 171 185 185 198 206 205 214 201 186 180 166 160 182 204 193 150 126 209 229 228 222 239 255 353 11 321 215 218 207 203 197 181 205 220 195 178 206 194 168 265 271 258 190 199 222 212 214 220 221 234 245 250 261 267 256 249 253
51 96 138 151 152 145 137 131 140 154 181 143 110 73 102 111 107 140 159 108 103 87 96 115 141 155 164 154 145 154 161 173 194 194 199 217 221 222 186 175 168 152 156 184 196 184 126 106 207 241 258 253 275 301 324 15 41 252 235 210 204 202 199 211 215 189 178 192 199 194 247 267 261 194 191 219 219 228 232 224 232 244 253 263 269 262 245 248
87 84 124 154 158 153 147 151 155 167 158 116 110 91 60 77 128 154 166 162 150 129 134 146 160 154 146 129 136 163 172 168 199 208 201 210 227 204 149 172 177 163 175 189 175 178 184 171 194 224 241 244 254 267 267 248 170 222 229 215 212 207 207 220 228 210 219 198 196 207 233 255 260 186 173 217 226 240 246 241 242 246 256 266 272 270 256 249
112 71 41 151 163 161 153 161 163 164 150 144 153 150 117 55 28 159 152 143 133 133 137 155 139 98 92 106 103 150 181 171 174 208 214 235 250 183 155 184 187 182 200 196 173 172 186 184 192 209 220 224 223 219 223 224 211 214 227 220 218 209 203 210 215 218 226 210 199 207 231 251 264 275 255 230 230 254 260 262 263 253 253 263 266 269 270 264
119 88 79 119 159 171 274 353 148 150 149 157 163 156 148 142 352 5 120 126 127 125 114 91 111 91 85 143 126 145 199 200 145 168 203 216 228 231 185 187 187 201 208 189 167 154 151 202 203 212 222 225 231 230 215 188 187 187 209 219 221 216 208 213 220 218 222 223 220 217 223 248 263 264 257 242 212 246 256 257 262 255 251 256 256 262 274 274
91 96 143 123 116 168 25 8 119 145 158 163 160 163 167 159 112 49 86 178 168 127 82 45 129 150 162 165 160 174 195 197 172 165 199 215 220 288 214 180 188 209 206 186 179 156 131 222 214 220 232 234 241 244 228 174 202 200 204 215 219 216 212 217 224 223 220 225 235 226 213 236 255 258 257 250 205 221 245 245 249 250 247 253 265 278 283 276
86 97 152 70 107 167 179 190 178 169 167 166 153 156 168 163 145 160 181 73 133 150 151 96 179 187 181 171 170 178 177 182 200 201 205 216 212 205 205 189 205 211 197 181 190 169 176 230 219 223 236 239 244 246 234 209 223 207 208 216 216 212 212 217 224 226 223 224 235 232 216 227 248 258 262 258 215 205 226 232 238 248 259 272 287 289 280 272
96 83 12 8 50 175 181 176 164 160 167 170 160 159 172 178 179 179 138 84 134 199 190 199 206 196 187 176 171 180 176 175 200 210 205 208 206 191 182 210 244 225 190 178 196 177 189 225 224 227 239 243 244 243 232 227 238 230 221 219 216 214 214 218 224 227 231 235 241 247 242 238 245 257 265 264 192 199 223 236 246 257 269 278 279 276 275 273
134 118 141 69 45 163 173 144 132 148 168 175 184 175 176 186 188 179 132 151 184 189 191 209 208 187 180 179 178 197 198 190 202 208 197 200 206 193 189 197 197 189 182 190 203 179 189 220 224 225 240 248 248 246 238 232 236 240 236 229 227 227 223 223 225 226 232 238 239 243 251 251 246 254 266 275 143 206 237 244 246 250 254 260 266 269 271 270
114 96 130 118 59 128 157 149 154 165 170 184 197 180 176 194 191 177 166 201 191 177 191 208 200 151 146 174 195 214 210 196 206 211 192 210 214 199 203 206 166 154 178 202 197 165 181 222 232 221 235 245 242 242 239 236 239 242 239 236 235 237 233 227 224 221 221 227 231 234 243 249 247 255 277 298 231 228 237 238 238 248 247 244 253 255 254 259
88 60 88 104 71 100 163 156 162 175 180 192 196 184 185 194 179 168 182 256 208 192 199 197 168 125 153 192 210 218 204 161 154 113 79 249 254 133 151 156 149 160 179 195 197 180 187 211 223 214 228 245 240 239 239 238 242 242 234 227 227 230 231 227 224 223 220 220 224 228 233 244 253 266 288 279 261 249 245 237 229 240 242 235 238 244 248 257
Height
736 739 742 744 746 748 749 752 754 756 760 762 765 768 770 772 774 776 778 780 782 784 786 787 789 790 791 792 795 798 800 801 802 803 802 800 801 804 804 805 808 808 809 810 811 812 813 815 816 816 817 820 823 823 822 823 823 825 833 842 844 844 840 834 835 837 834 831 831 832 833 832 833 834 833 833 834 834 834 834 833 833 833 833 831 830 831 831
733 735 738 740 743 746 747 750 752 753 757 760 763 765 768 770 772 774 776 779 781 783 785 786 787 789 790 791 794 796 799 800 802 801 798 799 802 804 804 804 806 807 808 809 810 811 813 815 816 817 819 822 825 824 824 824 824 829 838 843 842 838 833 828 827 829 830 829 830 831 833 833 832 833 833 833 835 836 836 833 833 833 832 832 832 831 831 831
730 731 734 737 740 743 744 746 750 751 753 757 761 763 766 768 771 772 774 777 779 781 784 786 786 787 790 791 792 795 797 800 802 798 794 798 802 802 804 805 806 807 807 808 810 811 812 814 815 817 820 823 826 826 826 826 826 830 836 840 836 832 831 828 826 826 827 827 829 830 832 833 832 832 832 833 836 837 836 832 832 832 830 830 832 832 832 832
727 728 730 734 737 740 741 743 747 749 751 754 758 761 763 766 769 771 773 775 778 781 782 785 786 787 791 791 793 795 796 801 800 792 792 797 800 801 802 804 805 806 806 808 810 811 812 814 815 818 821 825 827 827 827 827 828 831 833 833 831 830 830 827 825 826 827 828 827 829 832 832 831 832 832 832 836 837 834 829 828 827 826 829 832 832 832 832
723 725 727 731 733 736 739 741 744 747 749 751 756 759 761 763 767 769 771 774 776 779 781 784 786 787 791 792 795 795 797 803 795 786 790 794 797 801 801 803 804 805 806 808 809 811 812 814 816 819 822 825 828 828 829 828 828 831 831 830 828 830 830 825 825 826 828 830 829 829 830 829 830 831 831 832 833 832 827 825 824 824 824 827 829 830 831 832
719 722 725 728 730 733 736 738 741 745 747 749 753 758 760 761 764 768 770 772 775 778 781 783 785 787 790 792 794 795 797 799 790 786 789 791 795 799 801 802 803 804 806 807 809 810 812 814 817 821 823 825 828 828 829 829 829 831 831 829 828 829 828 826 826 826 828 829 828 828 827 828 830 829 831 831 827 823 822 822 823 823 824 825 827 829 830 831
716 718 722 725 727 731 733 735 738 742 745 747 750 754 758 760 762 766 768 771 773 776 779 782 785 787 789 792 793 795 796 793 787 787 788 789 794 797 800 801 802 804 806 807 808 810 813 816 819 821 823 826 828 827 828 829 829 832 832 829 829 830 827 826 826 827 828 827 827 828 828 828 828 828 832 830 823 820 821 822 823 822 823 825 826 827 828 828
712 715 718 722 725 729 731 732 735 740 743 745 748 752 756 758 761 764 767 770 772 774 777 780 784 785 788 790 792 796 797 791 787 788 788 789 792 795 798 800 801 804 805 807 807 809 812 817 822 823 824 826 826 826 827 829 830 831 831 829 830 830 827 827 827 827 828 827 828 829 828 828 828 830 831 826 820 819 821 822 822 822 823 825 825 826 826 827
709 712 715 718 722 726 730 731 733 737 741 743 746 749 754 757 760 763 765 768 770 773 775 779 781 783 787 788 792 797 791 785 787 788 789 790 791 794 796 798 800 802 804 807 807 809 812 816 821 822 823 824 825 826 826 829 831 828 828 829 829 829 828 829 828 827 829 828 828 828 827 828 830 832 828 821 818 819 821 822 822 822 823 824 824 824 825 825
705 708 711 715 719 722 727 730 731 735 739 742 744 747 752 756 759 762 764 766 769 770 774 778 779 782 786 787 795 795 784 782 787 787 790 791 791 793 796 798 799 801 804 806 808 809 810 812 815 818 822 824 825 827 827 828 828 826 827 828 828 829 829 830 829 828 830 829 828 829 828 828 831 833 826 819 817 819 820 821 823 822 822 823 823 823 823 823
700 704 707 711 715 719 723 727 729 732 737 741 743 745 750 754 757 761 763 766 767 769 773 777 778 781 784 787 792 790 782 783 785 787 791 791 792 794 796 798 799 801 803 805 808 808 809 811 812 817 823 824 825 829 828 825 826 826 827 829 830 830 830 830 829 829 829 829 829 829 829 829 831 831 825 818 817 819 819 820 822 822 821 821 821 821 822 821
697 700 703 707 712 716 721 724 726 730 735 739 742 744 748 752 756 760 762 765 767 769 772 775 778 780 783 787 787 783 782 783 784 786 790 792 794 795 796 798 799 800 802 804 807 808 809 810 811 817 821 821 825 829 826 823 826 827 827 831 832 831 831 829 828 830 829 829 828 829 833 832 828 825 822 818 817 819 819 819 821 820 819 820 820 821 821 819
693 696 699 704 709 714 719 722 724 728 732 737 740 743 747 751 755 759 762 764 767 769 771 774 777 778 782 785 783 781 782 783 784 786 789 792 795 797 798 798 799 801 802 804 806 808 810 810 811 815 818 820 825 826 823 823 826 827 828 831 834 837 835 828 828 831 830 829 827 830 839 834 822 819 819 817 817 818 819 819 819 819 819 819 820 820 819 818
690 693 696 701 706 711 716 719 722 725 730 735 739 742 746 750 754 758 761 764 766 768 770 773 775 776 780 782 780 780 782 783 785 786 788 789 792 798 799 799 800 802 803 805 807 808 810 811 811 814 818 820 822 822 824 828 828 829 832 834 837 842 838 828 829 831 829 831 826 830 843 833 818 818 817 815 816 817 817 817 817 817 817 818 818 819 817 816
686 690 693 697 702 707 712 717 721 723 727 732 737 741 745 749 753 757 761 764 766 768 769 773 774 777 781 781 778 779 781 783 785 785 787 787 789 796 800 800 802 803 804 806 807 808 810 811 813 816 820 821 821 824 830 832 831 831 836 839 840 841 837 828 829 830 827 830 827 831 842 832 818 816 814 814 815 817 816 816 816 816 816 817 817 817 816 813
682 687 690 693 699 704 709 715 719 721 725 730 735 740 744 749 753 757 761 763 766 767 768 772 774 777 781 780 777 777 779 782 783 785 787 787 787 793 799 800 802 804 807 808 808 809 810 811 815 818 821 822 824 827 834 837 836 835 837 841 840 841 840 832 830 830 826 828 828 830 836 828 817 815 813 815 815 816 817 816 816 815 814 815 814 814 813 812
678 682 686 690 695 701 706 712 716 718 723 727 732 739 744 749 753 756 760 763 766 767 768 771 774 778 779 777 776 777 778 780 782 784 786 788 788 791 796 800 803 805 807 809 809 810 811 814 818 820 821 824 825 828 838 843 840 839 840 841 841 840 842 838 831 828 827 830 830 829 831 823 814 813 813 813 814 814 815 814 813 812 811 812 812 812 811 809
675 679 683 687 692 697 703 709 714 716 720 726 730 737 743 748 752 755 759 763 766 769 771 771 775 778 776 773 776 775 775 778 781 783 786 788 789 791 794 799 803 805 808 811 812 814 816 818 821 823 825 827 826 828 835 837 833 837 842 842 842 839 839 839 830 826 828 832 832 832 833 824 814 814 813 812 814 813 811 811 811 810 810 810 810 809 808 807
671 676 680 684 689 695 700 706 712 715 719 723 727 734 740 746 752 755 759 761 764 769 770 769 771 773 770 769 772 774 774 776 780 783 785 787 790 792 795 797 800 804 811 816 817 817 819 821 825 826 826 826 823 823 826 827 824 830 836 838 839 838 838 836 829 826 829 832 833 833 833 825 814 814 814 811 813 813 811 810 809 809 809 808 807 806 804 803
667 673 677 681 687 691 696 703 710 715 717 718 721 728 736 744 752 759 762 761 761 763 763 764 765 766 768 768 769 773 775 777 780 783 785 786 788 793 797 798 801 807 812 815 818 819 821 824 825 822 820 819 820 820 821 823 823 826 832 835 835 836 836 833 828 827 829 832 832 830 831 827 815 813 814 812 814 814 811 808 805 804 805 805 804 801 799 798
664 670 674 678 684 689 694 701 707 712 713 714 716 720 728 735 740 749 758 762 762 761 761 763 764 766 768 768 768 770 775 778 781 783 785 786 787 793 799 799 803 810 811 811 816 820 823 824 821 817 815 816 818 821 823 824 824 826 831 835 837 838 836 831 828 829 830 833 832 829 831 829 818 812 813 813 815 814 809 805 803 801 801 802 800 797 794 794
661 667 670 675 682 687 692 699 704 709 711 714 715 717 723 727 728 733 744 756 762 762 762 763 765 768 768 769 769 769 774 779 782 785 785 786 788 793 799 800 802 808 810 812 818 825 830 828 819 815 814 815 819 821 824 827 827 827 830 835 839 839 837 832 828 828 831 832 831 831 831 828 819 811 811 813 813 810 804 800 799 798 799 798 796 794 792 791
658 664 668 672 679 685 691 697 703 707 709 710 713 716 721 724 727 732 740 753 762 764 765 765 766 769 769 770 769 769 773 776 780 783 783 785 788 790 796 800 801 806 811 813 819 828 835 828 817 813 813 816 822 824 825 828 830 829 830 835 836 835 837 835 829 828 830 831 831 833 832 826 819 812 807 807 808 804 799 796 796 796 795 791 790 790 789 787
655 661 667 671 678 684 689 697 703 707 706 707 711 714 719 723 728 734 742 755 763 764 765 766 767 768 768 769 768 770 773 774 777 781 781 783 788 790 794 797 800 806 809 809 813 823 826 819 813 813 814 817 823 825 826 830 833 831 830 832 833 832 832 831 829 829 830 832 831 832 831 820 812 810 801 796 801 800 796 796 795 794 791 788 787 786 784 783
652 659 664 669 677 681 688 696 701 704 705 707 711 714 720 724 728 733 741 756 765 767 768 767 767 768 766 767 768 770 773 775 777 779 780 782 785 790 793 794 799 804 806 807 813 819 817 813 814 817 817 818 823 826 827 829 833 832 828 827 829 829 828 829 830 831 833 834 832 833 834 818 804 806 800 794 799 799 796 796 793 790 787 787 786 782 780 781
650 656 660 667 675 680 688 694 698 702 706 709 710 714 719 723 731 733 741 763 770 767 770 767 766 766 765 768 770 771 776 778 778 778 779 782 783 786 792 795 796 800 803 807 813 814 811 810 812 818 820 819 822 825 825 825 832 834 826 823 827 828 829 832 832 835 838 838 834 834 836 824 805 802 798 793 796 794 791 792 790 787 784 783 781 777 777 777
647 653 658 665 673 678 683 689 696 700 704 707 707 712 718 723 732 732 746 776 774 761 767 768 765 764 763 768 768 771 779 778 778 779 778 781 783 785 792 795 796 798 800 808 814 807 804 810 813 816 820 822 822 822 819 821 831 832 822 820 827 829 831 834 835 839 840 839 838 833 835 834 816 799 792 789 790 789 787 786 783 780 777 776 776 773 772 772
645 651 657 664 671 676 680 685 691 694 698 703 705 710 717 724 733 734 753 781 770 753 761 764 764 763 763 767 767 769 774 773 775 780 778 780 784 786 791 792 792 796 796 803 810 802 800 809 811 812 819 823 820 815 815 820 826 827 820 819 824 828 832 834 837 842 844 845 843 834 835 839 817 794 792 792 789 788 785 782 776 772 769 767 768 767 766 766
642 648 656 664 671 678 684 687 690 694 699 704 707 713 717 726 733 739 759 769 755 750 754 756 762 765 766 769 769 769 770 772 775 778 779 781 783 785 789 789 789 795 796 796 800 801 800 800 801 807 815 816 812 811 814 817 822 823 821 822 826 831 833 836 838 841 847 849 841 832 834 837 812 788 794 800 793 788 784 779 775 770 766 763 762 762 760 762
639 646 656 665 672 679 686 691 694 697 702 705 710 713 718 729 734 748 769 758 744 751 752 753 760 762 765 768 770 772 772 774 776 776 781 784 784 785 787 789 791 797 800 797 798 801 798 795 797 803 805 802 804 811 814 814 819 821 822 826 831 835 836 839 841 841 848 848 832 822 826 834 818 788 787 793 785 780 777 776 774 767 763 761 760 759 757 758
638 645 657 665 671 676 681 688 693 697 702 706 710 712 722 736 739 754 767 744 736 752 751 755 761 759 762 764 767 773 774 778 778 776 781 784 786 787 787 791 796 801 804 803 802 801 800 800 800 799 797 797 804 814 815 815 818 820 823 828 833 838 839 842 844 843 847 839 820 813 819 832 825 793 782 783 776 775 774 770 767 762 760 758 756 756 755 756
637 646 657 664 670 675 676 682 688 694 701 704 708 713 724 744 750 751 747 730 737 753 750 754 759 758 762 763 766 771 773 779 779 775 777 780 785 785 782 786 791 797 803 804 803 803 804 802 797 797 797 797 804 815 820 820 820 821 824 830 837 842 840 840 840 838 839 829 812 812 819 827 817 789 777 778 773 774 773 768 764 758 755 754 753 754 754 756
638 647 659 667 671 675 677 682 688 694 700 703 711 717 724 742 750 740 732 730 736 743 744 751 754 756 761 763 767 769 770 776 776 774 775 777 782 782 780 781 782 786 792 797 801 805 807 803 800 802 800 795 798 807 815 816 816 819 820 826 833 836 836 835 831 830 832 822 811 814 821 824 810 783 770 770 768 765 764 765 763 757 755 754 753 755 754 753
641 651 662 669 672 675 678 683 689 693 698 703 714 722 727 737 738 728 731 739 740 738 741 748 753 757 760 761 765 767 770 776 775 775 776 778 782 783 782 782 781 784 787 793 799 801 804 802 799 798 795 793 793 794 798 802 810 814 811 818 826 824 826 826 822 822 822 814 811 818 823 818 799 776 767 767 766 763 761 762 762 759 758 756 755 755 753 751
645 655 663 669 673 677 680 684 689 693 698 704 715 724 727 728 725 724 731 739 742 742 744 747 752 759 762 765 767 765 766 773 775 776 777 777 779 779 780 779 781 784 786 791 794 795 799 796 787 785 785 787 789 788 790 798 810 812 809 818 822 813 815 821 821 819 816 813 814 817 817 803 780 765 762 765 765 763 760 760 759 756 752 752 753 750 747 747
649 657 664 669 672 676 681 685 690 695 698 705 718 725 720 713 711 716 720 725 731 736 743 750 753 756 762 768 770 767 766 769 774 778 779 779 779 777 777 776 778 782 782 784 788 792 798 792 782 784 786 784 783 784 786 790 800 808 811 813 809 802 807 819 825 824 823 822 810 804 805 796 780 765 754 755 759 757 757 754 752 750 745 747 749 744 742 742
650 657 664 669 672 677 682 685 690 696 701 707 716 718 711 706 707 709 712 718 723 727 736 745 748 750 757 765 768 768 767 768 773 777 778 781 779 776 776 775 775 778 777 777 781 785 788 787 782 785 788 783 780 785 788 785 789 804 807 801 801 807 809 816 825 828 830 827 809 797 795 793 789 774 753 752 756 754 753 748 744 743 742 743 744 741 740 739
651 658 666 669 672 676 681 686 690 694 703 711 714 711 708 709 710 709 712 717 721 726 732 739 743 747 752 759 763 764 764 766 772 776 777 778 775 768 772 775 772 773 773 775 781 782 783 787 783 781 783 782 782 790 796 791 790 799 799 792 800 811 813 817 822 819 821 820 807 796 792 789 787 772 753 752 755 754 754 749 744 742 740 738 736 735 736 735
651 660 668 670 674 678 681 686 691 695 705 712 712 709 709 711 712 710 710 714 719 726 731 735 740 746 751 753 757 761 763 762 768 774 772 773 771 762 763 769 769 771 772 775 781 781 783 788 785 780 781 783 786 792 796 794 795 800 800 795 797 801 802 806 806 802 806 809 802 795 790 783 771 756 749 751 751 751 752 749 745 740 734 732 729 729 732 732
653 662 669 671 674 679 682 686 692 699 705 706 705 707 708 709 713 713 711 712 719 727 729 730 736 745 750 752 754 759 762 760 763 769 767 766 766 762 761 764 767 770 772 775 779 779 784 789 787 785 786 786 788 786 781 781 788 797 800 799 799 799 801 802 798 795 800 804 803 800 790 772 752 744 746 746 745 745 742 740 738 734 729 728 726 727 729 731
654 662 668 672 675 678 683 691 697 700 702 702 704 709 710 708 712 717 715 713 719 726 726 728 734 740 746 751 755 757 760 762 763 766 765 763 762 760 758 758 760 764 771 777 778 778 783 787 785 786 786 785 781 776 772 772 776 784 789 788 788 791 798 802 800 798 800 799 797 798 790 763 741 739 739 735 738 738 735 735 732 729 727 724 723 726 727 728
656 661 666 671 675 677 683 693 699 699 700 702 704 708 708 706 711 717 718 716 720 725 726 727 732 737 741 748 752 754 758 762 764 763 763 761 757 754 753 753 755 759 766 773 773 772 776 782 785 785 784 781 777 774 777 779 776 775 778 777 778 782 789 796 796 794 797 796 790 796 794 762 733 732 732 729 734 733 730 733 731 728 726 723 722 725 726 727
658 662 667 672 675 677 682 693 700 702 702 701 702 705 707 708 712 717 718 717 721 727 726 726 730 734 737 742 747 752 755 759 761 760 759 760 756 752 753 754 756 761 765 770 772 772 776 783 786 785 781 778 776 775 779 783 783 780 776 774 776 778 779 781 780 782 788 792 791 799 799 765 728 725 731 729 731 731 729 730 730 728 726 723 722 723 724 725
662 666 672 675 678 678 680 687 693 700 703 701 703 709 710 710 712 715 716 717 722 726 724 726 730 732 734 738 743 748 751 754 759 759 758 759 755 751 754 755 757 760 761 763 765 767 773 778 782 786 786 784 783 783 783 784 786 784 776 770 770 772 774 777 779 782 783 782 784 792 792 761 726 723 732 731 728 730 731 731 730 730 728 725 722 720 721 723
663 671 678 680 681 682 684 684 684 692 700 701 704 709 710 713 715 714 715 719 724 724 723 728 733 732 735 740 743 747 748 748 753 757 759 759 754 752 754 754 756 757 755 755 756 760 767 770 773 780 784 782 780 776 772 770 773 778 774 768 767 768 772 775 778 783 781 774 774 780 777 752 726 723 730 731 731 733 732 732 732 732 730 727 723 720 719 721
659 670 680 684 686 687 689 687 684 690 698 700 706 710 710 715 719 716 716 721 726 724 724 731 734 733 739 742 743 749 749 747 750 755 758 756 751 751 752 751 754 755 753 755 757 760 766 766 765 769 768 764 761 756 753 755 762 770 771 767 767 767 768 770 773 775 772 770 770 767 764 754 735 722 720 725 733 735 731 730 730 729 728 725 722 721 719 719
657 668 676 680 686 691 693 692 689 691 695 698 702 707 709 714 718 719 718 720 724 725 728 734 733 732 738 742 743 747 748 749 752 753 754 753 749 750 752 753 754 753 753 757 758 760 766 765 763 765 761 755 751 749 750 753 756 762 764 763 764 765 766 770 771 766 763 770 768 757 757 758 740 718 713 719 727 731 730 729 727 724 724 722 721 720 718 717
661 670 675 673 676 684 688 689 689 690 692 695 698 703 710 715 718 719 720 723 726 724 725 733 734 730 732 734 737 744 748 752 755 752 750 752 751 751 753 754 753 751 753 758 758 759 764 764 760 760 760 755 751 751 754 755 753 754 756 757 758 761 764 766 765 759 758 762 758 749 751 755 738 716 710 714 722 725 724 723 722 721 721 721 722 721 717 715
665 672 677 676 675 677 679 681 687 691 694 696 699 702 707 712 714 714 717 725 730 725 722 726 729 729 731 730 732 739 744 748 751 748 745 747 749 751 754 755 754 752 754 758 760 761 762 761 758 758 759 755 751 752 756 756 754 753 753 753 754 755 757 759 758 756 755 753 749 746 747 745 734 717 706 710 720 722 719 719 720 721 722 721 721 718 713 711
664 669 674 678 679 679 681 685 691 696 698 699 701 702 704 707 710 711 714 718 721 724 724 720 720 727 733 733 732 733 733 733 735 738 739 743 747 751 753 750 749 754 759 758 758 763 766 760 754 758 762 757 750 752 755 755 755 753 750 751 753 754 755 755 754 754 755 754 750 748 747 739 726 713 707 712 718 718 717 718 719 720 721 720 717 714 711 708
664 667 669 675 681 683 684 688 692 695 699 700 699 699 701 703 705 708 712 712 711 716 720 716 718 729 736 738 735 729 726 727 729 734 738 740 742 743 746 745 744 752 761 759 756 763 769 763 757 761 765 757 748 749 750 752 755 755 752 752 754 755 754 752 748 746 747 748 748 750 748 735 718 711 713 715 715 714 715 716 717 718 718 718 715 711 708 705
666 668 668 672 682 687 686 688 693 695 695 694 691 692 694 697 702 707 712 714 712 713 715 716 720 729 736 738 731 722 723 729 734 739 743 744 744 743 745 747 746 747 753 754 755 759 763 762 760 762 764 754 745 745 748 753 757 753 748 748 748 746 745 742 739 737 737 739 743 744 737 724 714 716 720 715 708 710 714 715 716 715 713 714 712 708 705 703